Location: Glencliff
(36.1226°N, 86.7183°W)
Time: 00:05:38
(UTC+00:00)

Meteor 1-31 Rocket - Pass Details

Date: 25 August 2019
Orbit: 520 x 548 km, 97.6° (Epoch: 23 October)

Event Time Altitude Azimuth Distance (km) Brightness Sun altitude
Rises 10:26:59 0° 8° (N) 2,719 6.8 -9.7°
Reaches altitude 10° 10:29:07 10° 6° (N) 1,824 5.8 -9.3°
Maximum altitude 10:33:02 67° 284° (WNW) 596 2.8 -8.5°
Drops below altitude 10° 10:36:55 10° 202° (SSW) 1,814 5.1 -7.8°
Sets 10:39:03 0° 199° (SSW) 2,702 6.0 -7.4°
